Simultaneous Nadir Overpasses (SNOs) Predictions

Prediction of SNOs between GOES-16 and LANDSAT-8 Satellite Orbit:

Table of predicted SNOs for the next 14.0 days since TLE Epoch: 2/29/2020
Index Date Time (GOES-16) GOES-16 Lat,Lon LANDSAT-8 Lat,Lon Distance(km) Time Diff (sec)
1 02/29/2020 03:30:46 0.03, -75.16 0.00, -79.28 458.10 80
2 03/01/2020 14:56:56 -0.03, -75.18 -0.89, -70.95 480.14 80
3 03/02/2020 03:15:41 0.03, -75.17 -0.16, -76.15 111.61 80
4 03/04/2020 03:06:09 0.04, -75.18 0.48, -73.20 225.70 80
5 03/04/2020 15:24:43 -0.04, -75.19 0.64, -78.35 359.02 80
6 03/06/2020 15:12:32 -0.04, -75.21 0.00, -75.40 21.37 80
7 03/08/2020 15:03:00 -0.04, -75.23 -0.63, -72.44 316.89 80
8 03/09/2020 03:21:43 0.05, -75.22 -0.47, -77.63 274.34 80
9 03/11/2020 03:12:11 0.04, -75.25 0.17, -74.68 64.83 80
10 03/13/2020 02:59:59 0.04, -75.28 0.82, -71.72 404.48 80
11 03/13/2020 15:18:34 -0.05, -75.30 0.30, -76.88 179.74 80




NCC Satellite Simultaneous Nadir Overpasses (SNOs) Prediction Service
